Погода в Шаиме

Погода в Шаиме : погода сейчас, прогноз погоды и архив. Всё, что Вы хотите узнать о погоде в Шаиме!

Хотите узнать прогноз погоды в Шаиме? Тогда Вам сюда: Погода в Шаиме

Поиск расширенной информации на нашем сайте:

Другие новости

Новости СМИ2

Главная страница сайта

Новости сайта

03.07.2017

Напоминаем, что на нашем специализированном сайте Метеоцентр.Азия вы можете получить высокодетализированные автоматические прогнозы погоды по пунктам России, СНГ и мира в авиационном формате (включающие направление и скорость ветра, видимость, явления погоды, количество и форму облачности, нижнюю и верхнюю границу облачности).


Погода в Шаиме - сегодня

Время (UTC), дата Ветер
(°,м/с) 
Видим.   Явления Облачность Т
(°С)
Тd
(°С)
f(%) Тe
(°С)
Pmin
(гПа)
dP
(гПа)
Po
(мм)
O2
(г/м3)
Тmin Tmax R s Состояние
почвы
18 21.07.17 160 (Ю) 25000 м    6/0 верхняя 
[Ci fib]
+22.6 +11.7 50 +26  1014.1  0.1  756  279           
21 21.07.17 110 (В) 26000 м    3/0 верхняя 
[Ci fib]
+16.8 +13.8 82 +24  1013.8  -0.4  756  284           
00 22.07.17 180 (Ю) 24000 м    3/0 верхняя 
[Ci fib]
+15.2 +13.3 88 +23  1013.7  -0.2  756  286           
03 22.07.17 110 (В) 25000 м    3/0 верхняя 
[Ci fib]
+22.6 +14.7 61 +31  1013.3  -0.2  755  278  +13.6         
06 22.07.17 110 (В) 26000 м    4/3 1000 м верхняя 
[Cu hum|Ci fib]
+27.2 +12.6 40 +32  1012.9  -0.4  755  274           
09 22.07.17 120 (ЮВ) 27000 м    8/6 600 м кучево-дожд., верхняя 
[Cb cap|Ci fib]
+27.8 +11.2 36 +30  1011.4  -1.4  754  274           
12 22.07.17 170 (Ю) 27000 м    8/6 600 м кучево-дожд., верхняя 
[Cb cap|Ci sp]
+28 +11.1 35 +31  1010.1  -1.3  753  273           
15 22.07.17 110 (В) 2{12}  26000 м  {гроза, ливн. осадки}  10/4 600 м кучево-дожд., средняя, верхняя 
[Cb cap|Ac trans|Ci fib]
+23.5 +17 67 +36  1009.8  -0.4  753  276    +28.6  0.4     
18 22.07.17 120 (ЮВ) 25000 м  {гроза, ливн. осадки}  10/3 600 м кучево-дожд., средняя, верхняя 
[Cb cap|Ac trans|Ci fib]
+20.7 +15.6 73 +30  1009.3  -0.5  752  279           
21 22.07.17 200 (Ю) 24000 м    10/6 600 м кучево-дожд., средняя, верхняя 
[Cb cap|Ac trans|Ci fib]
+19.1 +13.8 71 +27  1008.9  -0.5  752  280           
00 23.07.17 030 (СВ) 25000 м    10/4 600 м кучево-дожд., верхняя 
[Cb cap|Ci fib]
+17.9 +14.4 80 +27  1008.9  -0.1  752  281           
03 23.07.17 330 (СЗ) 26000 м    10/5 600 м кучево-дожд., средняя, верхняя 
[Cb cap|Ac trans|Ci fib]
+20.1 +14.6 71 +28  1008  -0.9  751  279  +17.7    0.4     
06 23.07.17 110 (В) 27000 м    10/5 600 м кучево-дожд., средняя, верхняя 
[Cb cap|Ac trans|Ci fib]
+24.7 +15.3 56 +34  1007.1  -0.7  751  274           
09 23.07.17 160 (Ю) 28000 м    10/5 600 м кучево-дожд., средняя, верхняя 
[Cb cap|Ac trans|Ci fib]
+23.1 +11.6 48 +26  1008.1  0.9  752  277           
12 23.07.17 090 (В) 29000 м    10/4 600 м кучево-дожд., средняя, верхняя 
[Cb cap|Ac trans|Ci fib]
+25.2 +10.6 40 +27  1007.8  -0.2  751  275           
15 23.07.17 070 (В) 30000 м    10/6 600 м кучево-дожд., средняя, верхняя 
[Cb cap|Ac trans|Ci fib]
+23 +13.6 55 +29  1007.6  -0.3  751  276    +25.8       
18 23.07.17 050 (СВ) 28000 м    10/0 средняя, верхняя 
[Ac trans|Ci fib]
+17.8 +14.6 82 +27  1007.9  0.2  751  281           
21 23.07.17 340 (С) 27000 м    10/0 средняя, верхняя 
[Ac trans|Ci fib]
+17.7 +14.7 83 +26  1007.1  -0.8  751  281           
00 24.07.17 360 (С) 26000 м    10/0 средняя, верхняя 
[Ac trans|Ci fib]
+15.1 +13.6 91 +22  1007.2  0.1  751  284           
03 24.07.17 100 (В) 25000 м    10/3 600 м кучево-дожд., средняя, верхняя 
[Cb cap|Ac trans|Ci fib]
+18.3 +15.3 83 +29  1006.7  -0.5  750  280  +14.8         
06 24.07.17 090 (В) 26000 м    10/4 600 м кучево-дожд., верхняя 
[Cb calv|Ci fib]
+25.1 +14.7 52 +33  1005.9  -0.6  750  274           
09 24.07.17 090 (В) 27000 м    10/6 600 м кучево-дожд., верхняя 
[Cb calv|Ci fib]
+27.6 +12.7 40 +33  1005.2  -0.7  749  272           
12 24.07.17 070 (В) 28000 м    10/6 600 м кучево-дожд., верхняя 
[Cb calv|Ci fib]
+25.9 +13.6 47 +32  1004.6  -0.6  749  273           
15 24.07.17 010 (С) 25000 м  в посл. час ливневой дождь  10/8 600 м кучево-дожд., верхняя 
[Cb cap|Ci fib]
+23.2 +15.4 62 +33  1004.7  749  275    +28  0.4     
18 24.07.17 230 (ЮЗ) 26000 м  {ливн. осадки}  10/8 600 м кучево-дожд., средняя, верхняя 
[Cb cap|Ac trans|Ci fib]
+19.1 +15.7 81 +31  1004.6  -0.1  749  279           
Время (UTC), дата Ветер
(°,м/с) 
Видим.   Явления Облачность Т
(°С)
Тd
(°С)
f(%) Тe
(°С)
Pmin
(гПа)
dP
(гПа)
Po
(мм)
O2
(г/м3)
Тmin Tmax R s Состояние
почвы

Для получения пояснительной информации подведите курсор к названию столбца.

ПОГОДА в Шаиме - архив

Всё, что Вы хотите узнать о погоде в Шаиме - удобно и подробно!

Выберите нужную дату (начиная с 1 января 2015* года) и нажмите кнопку "Найти".
Будут отображены архивные сводки погоды по пункту Шаим, начиная с указанной даты.


Отображать данные в формате CSV (для использования в таблицах Excel)


Внимание! Наш архив погоды предназначен исключительно для личного некоммерческого использования в познавательных целях. Если Вам необходимы официальные справки о состоянии погоды (для производственных, юридических, коммерческих и т.п. целей), обращайтесь в органы Росгидромета.

*Примечание: данная дата относится к архиву по метеостанциям СССР (Россия, СНГ, Балтия).
Архив по метеостанциям Зарубежной Европы и Азии (кроме Китая) хранится 10 дней, по другим регионам земного шара (Китай, Африка, Америка, Австралия, Океания) - 1 день.

Шаим - район местоположения метеостанции


Название, широта, долгота, высота метеостанции:
Шаим 60.3°ш. 64.2°д. 53 м над ур. моря [Российская Федерация]

Дополнительная информация

В oтличие oт бoльшинства пoгoдных сайтoв мы публикуем пoдрoбную метеoинфoрмацию в детальнoм прoфессиoнальнoм фoрмате.

Характеристики температуры и влажнoсти вoздуха измеряются на высoте 2 м в тени вдали oт зданий и деревьев.
Скoрoсть ветра измеряется на высoте 10 м (на урoвне рoста челoвека скoрoсть ветра ниже в 1.5-2 раза). Если метеoстанция нахoдится в гoрoде или в лесу, тo скoрoсть ветра занижена на 2-4 м/с пo сравнению с oткрытым местoм. Скoрoсть ветра над акватoриями крупных рек и oзёр, а также на вершинах хoлмoв на 2-5 м/с выше, чем в oбычных услoвиях.
Атмoсфернoе давление в разных тoчках местнoсти мoжет значительнo oтличаться oт давления на метеoстанции, в зависимoсти oт услoвий рельефа (при пoдъёме на 10 м давление пoнижается примернo на 1 мм рт.ст.).